CAPE
0 1 0 1 2 0 1 6 57 3 0 0 0 0 0 0 3 29 5 0 34 176 93 0 0 2 2 1 1 0 0 0 0 0 0 0 0 0 0 0 0 0 0 1
0 0 0 5 0 0 0 0 0 0 0 0 0 3 2 0 0 0 0 0 8 151 78 11 1 0 0 0 2 0 0 0 0 0 0 0 0 0 0 0 0 0 0 0
2 0 2 6 0 0 0 0 0 0 0 0 20 30 0 0 0 0 0 0 6 9 0 0 0 0 0 1 1 0 0 0 0 0 0 0 0 0 0 0 0 0 0 0
11 8 1 0 0 21 15 2 0 2 4 13 0 0 0 4 78 134 16 43 78 24 1 0 0 0 0 1 1 1 0 0 0 0 0 0 0 0 0 0 0 1 1 1
29 34 0 0 2 6 6 5 103 62 40 78 104 109 124 24 4 0 1 0 0 0 0 0 0 1 0 1 2 1 0 0 0 0 0 0 0 0 0 1 3 3 1 1
34 20 7 5 0 0 1 119 1 3 15 8 105 5 76 0 11 1 0 0 0 0 0 0 0 0 0 0 0 0 1 0 0 0 0 0 0 0 1 2 0 1 1 1
6 10 0 0 0 0 5 2 2 4 12 16 36 23 0 0 3 0 0 0 0 0 0 0 0 0 0 0 0 0 0 0 0 0 0 0 0 0 0 0 0 6 10 12
0 2 0 0 0 6 4 2 5 13 0 2 0 2 2 1 0 0 0 0 0 0 0 0 0 0 0 0 0 0 0 0 0 0 0 1 0 3 1 3 8 9 9 12
0 0 0 0 5 2 7 1 6 8 0 0 0 0 0 0 1 9 7 3 0 0 0 0 0 0 0 0 0 0 0 0 0 0 3 1 3 3 3 6 5 4 3 6
2 0 0 0 0 4 2 4 5 2 5 0 0 0 0 0 0 0 0 0 0 0 0 1 0 0 0 0 0 0 1 2 5 2 3 1 2 6 4 8 8 0 2 7
0 0 6 0 1 0 0 3 0 2 1 1 0 0 0 0 0 0 0 0 0 0 0 0 0 0 0 3 0 0 1 3 1 2 1 3 3 3 2 3 0 2 7 11
2 5 32 11 0 1 3 12 1 3 0 0 0 0 0 0 0 0 0 0 0 0 0 1 1 1 2 1 2 3 3 1 2 2 5 3 3 6 0 0 0 0 0 2
3 15 0 4 5 6 6 7 3 5 3 7 2 0 0 0 0 0 0 0 0 0 0 0 0 1 3 1 1 0 2 3 2 2 1 3 5 4 6 6 0 0 0 0
0 2 6 9 4 1 8 0 2 1 4 4 0 2 4 2 0 1 10 0 0 0 0 0 0 0 0 0 0 0 1 0 2 5 6 4 7 8 10 8 14 13 3 1
20 11 15 2 1 1 11 6 3 1 0 0 0 0 0 2 2 2 0 0 0 0 0 0 0 0 0 0 0 0 4 4 6 5 5 7 8 8 9 10 9 5 5 5
19 18 1 0 1 6 13 6 9 4 2 0 0 3 2 1 3 1 0 0 3 4 3 0 0 0 0 0 1 0 0 0 1 3 9 7 8 8 10 10 10 4 6 6
3 2 4 2 8 7 11 7 8 12 7 6 4 3 2 1 1 0 1 1 1 1 3 0 0 0 0 0 0 1 3 5 1 3 6 5 5 5 7 7 6 6 6 4
1 10 15 12 6 6 4 6 4 4 3 7 1 1 0 0 1 0 0 0 0 0 0 0 0 0 0 1 0 1 3 3 5 4 4 4 5 4 5 2 1 2 7 6
3 2 3 5 6 4 3 4 3 1 1 1 0 0 0 1 0 0 0 0 2 0 1 0 0 0 1 1 0 0 2 4 3 3 3 3 4 1 2 1 1 1 1 4
0 1 1 2 2 1 1 0 0 1 0 0 0 0 0 1 1 1 0 0 0 0 0 0 0 1 1 1 0 2 2 3 1 3 4 2 3 2 1 0 1 1 5 10
1 0 0 0 0 0 0 0 0 0 0 0 3 2 1 1 0 1 3 2 0 0 0 0 0 0 0 0 0 1 3 5 5 3 2 5 3 1 1 1 1 2 3 7
4 6 1 0 0 1 0 0 0 0 0 1 0 4 2 1 0 0 1 3 2 1 1 0 1 0 0 0 0 2 0 0 2 2 3 4 4 1 1 2 2 3 3 5
2 2 1 0 0 0 0 0 0 2 0 0 1 2 2 1 0 1 1 0 0 1 1 2 0 0 0 1 4 2 2 2 3 2 3 3 2 3 3 2 4 5 6 4
2 1 0 0 1 1 1 1 0 0 3 0 0 1 2 5 3 0 0 0 0 0 1 2 1 0 0 2 3 3 4 3 3 3 1 0 3 3 4 5 4 9 7 2
0 0 0 2 2 3 5 7 2 0 0 2 3 0 2 2 4 1 0 1 0 0 0 0 0 0 3 3 3 3 3 3 2 3 2 3 3 4 5 4 4 3 2 2
0 0 2 1 5 5 0 8 9 0 3 2 2 1 7 2 1 1 1 1 1 0 1 1 1 1 1 0 0 0 0 0 0 0 1 2 2 2 1 1 1 1 2 2
1 0 3 3 4 3 5 3 15 24 17 9 11 7 7 6 2 0 0 2 3 5 3 3 2 0 1 0 0 0 0 0 0 0 1 1 0 0 0 0 2 3 1 1
CIN
-0 -0 -0 -0 -0 -0 -0 -0 -0 -15 -0 -0 -0 -0 -0 -0 -37 -14 -70 -0 -65 -53 -66 -0 -0 -0 -0 -0 -0 -0 -0 -0 -0 -0 -0 -0 -0 -0 -0 -0 -0 -0 -0 -0
-0 -0 -0 -0 -0 -0 -0 -0 -0 -0 -0 -0 -5 -64 -41 -0 -0 -0 -0 -0 -31 -66 -44 -68 -0 -0 -0 -0 -0 -0 -0 -0 -0 -0 -0 -0 -0 -0 -0 -0 -0 -0 -0 -0
-0 -0 -0 -0 -0 -0 -0 -0 -0 -0 -0 -0 -27 -23 -12 -0 -0 -0 -0 -0 -74 -35 -1 -0 -0 -0 -0 -0 -0 -0 -0 -0 -0 -0 -0 -0 -0 -0 -0 -0 -0 -0 -0 -0
-0 -0 -0 -0 -0 -0 -0 -0 -0 -0 -0 -0 -55 -27 -0 -60 -88 -46 -25 -12 -16 -30 -12 -0 -0 -0 -0 -0 -0 -0 -0 -0 -0 -0 -0 -0 -0 -0 -0 -0 -0 -0 -0 -0
-0 -0 -0 -0 -0 -0 -0 -0 -8 -1 -18 -0 -51 -64 -50 -90 -60 -0 -14 -0 -0 -0 -0 -0 -0 -0 -0 -0 -0 -0 -0 -0 -0 -0 -0 -0 -0 -0 -0 -0 -0 -0 -0 -0
-0 -0 -0 -0 -0 -0 -0 -0 -0 -0 -0 -0 -2 -1 -14 -0 -91 -128 -1 -0 -0 -0 -0 -0 -0 -0 -0 -0 -0 -0 -0 -0 -0 -0 -0 -0 -0 -0 -0 -0 -0 -0 -0 -0
-0 -0 -0 -0 -0 -0 -0 -0 -0 -0 -0 -0 -18 -2 -0 -33 -93 -0 -0 -0 -0 -0 -0 -0 -0 -0 -0 -0 -0 -0 -0 -0 -0 -0 -0 -0 -0 -0 -0 -0 -0 -0 -0 -0
-0 -3 -0 -0 -0 -0 -0 -0 -0 -0 -0 -0 -0 -67 -95 -33 -0 -12 -0 -0 -0 -0 -0 -0 -0 -0 -0 -0 -0 -0 -0 -0 -0 -0 -0 -0 -0 -0 -0 -0 -0 -0 -0 -0
-0 -0 -0 -0 -0 -0 -0 -0 -0 -0 -0 -0 -0 -0 -0 -0 -33 -63 -63 -65 -0 -0 -0 -0 -0 -0 -0 -0 -0 -0 -0 -0 -0 -0 -0 -0 -0 -0 -0 -0 -0 -0 -0 -0
-0 -0 -0 -0 -0 -0 -0 -0 -0 -0 -0 -0 -0 -0 -0 -0 -0 -0 -0 -0 -0 -0 -0 -0 -0 -0 -0 -0 -0 -0 -0 -0 -0 -0 -0 -0 -0 -0 -0 -0 -0 -0 -0 -0
-0 -0 -0 -0 -0 -0 -0 -0 -0 -0 -0 -0 -0 -0 -0 -0 -0 -0 -0 -0 -0 -0 -0 -0 -0 -0 -0 -0 -0 -0 -0 -0 -0 -0 -0 -0 -0 -0 -0 -0 -0 -0 -0 -0
-0 -0 -0 -0 -0 -0 -0 -5 -0 -0 -0 -0 -0 -0 -0 -0 -0 -0 -0 -0 -0 -0 -0 -0 -0 -0 -0 -0 -0 -0 -0 -0 -0 -0 -0 -0 -0 -0 -0 -0 -0 -0 -0 -0
-1 -0 -0 -0 -0 -1 -0 -0 -0 -0 -0 -0 -0 -0 -0 -0 -0 -0 -0 -0 -0 -0 -0 -0 -0 -0 -0 -0 -0 -0 -0 -0 -0 -0 -0 -0 -0 -0 -0 -0 -0 -0 -0 -0
-0 -0 -0 -0 -0 -0 -0 -0 -0 -0 -0 -0 -0 -0 -0 -0 -0 -90 -154 -0 -0 -0 -0 -0 -0 -0 -0 -0 -0 -0 -0 -0 -0 -0 -0 -0 -0 -0 -0 -0 -0 -0 -0 -0
-0 -0 -0 -0 -0 -0 -0 -0 -0 -0 -0 -0 -0 -0 -0 -0 -0 -0 -0 -0 -0 -0 -0 -0 -0 -0 -0 -0 -0 -0 -0 -0 -0 -0 -0 -0 -0 -0 -0 -0 -0 -0 -0 -0
-0 -0 -0 -0 -0 -0 -0 -7 -0 -0 -0 -0 -0 -0 -0 -0 -0 -0 -0 -0 -0 -0 -0 -0 -0 -0 -0 -0 -0 -0 -0 -0 -0 -0 -0 -0 -0 -0 -0 -0 -0 -0 -0 -0
-0 -0 -0 -0 -0 -0 -0 -3 -0 -0 -0 -0 -0 -0 -0 -0 -0 -0 -0 -0 -0 -0 -0 -0 -0 -0 -0 -0 -0 -0 -0 -0 -0 -0 -0 -0 -0 -0 -0 -0 -0 -0 -0 -0
-0 -0 -0 -0 -0 -0 -0 -0 -0 -0 -0 -0 -0 -0 -0 -0 -0 -0 -0 -0 -0 -0 -0 -0 -0 -0 -0 -0 -0 -0 -0 -0 -0 -0 -0 -0 -0 -0 -0 -0 -0 -0 -0 -0
-0 -1 -2 -0 -0 -0 -0 -0 -0 -0 -0 -0 -0 -0 -0 -0 -0 -0 -0 -0 -0 -0 -0 -0 -0 -0 -0 -0 -0 -0 -0 -0 -0 -0 -0 -0 -0 -0 -0 -0 -0 -0 -0 -0
-2 -1 -2 -3 -6 -3 -0 -0 -0 -0 -0 -0 -0 -0 -0 -0 -0 -0 -0 -0 -0 -0 -0 -0 -0 -0 -0 -0 -0 -0 -0 -0 -0 -0 -0 -0 -0 -0 -0 -0 -0 -0 -0 -0
-14 -14 -2 -5 -0 -0 -0 -0 -0 -0 -0 -0 -0 -0 -0 -0 -0 -0 -0 -0 -0 -0 -0 -0 -0 -0 -0 -0 -0 -0 -0 -0 -0 -0 -0 -0 -0 -0 -0 -0 -0 -0 -0 -0
-16 -19 -30 -18 -40 -18 -0 -0 -0 -0 -0 -0 -0 -0 -0 -0 -0 -0 -0 -0 -0 -0 -0 -0 -0 -0 -0 -0 -0 -0 -0 -0 -0 -0 -0 -0 -0 -0 -0 -0 -0 -0 -0 -0
-6 -10 -9 -0 -0 -0 -0 -0 -0 -0 -0 -0 -0 -0 -0 -0 -0 -0 -0 -0 -0 -0 -0 -0 -0 -0 -0 -0 -0 -0 -0 -0 -0 -0 -0 -0 -0 -0 -0 -0 -0 -0 -0 -0
-0 -0 -0 -0 -0 -0 -0 -0 -0 -0 -0 -0 -0 -0 -0 -0 -0 -0 -0 -0 -0 -0 -0 -0 -0 -0 -0 -0 -0 -0 -0 -0 -0 -0 -0 -0 -0 -0 -0 -0 -0 -0 -0 -0
-0 -0 -0 -0 -0 -0 -1 -0 -0 -0 -0 -0 -0 -0 -0 -0 -0 -0 -0 -0 -0 -0 -0 -0 -0 -0 -0 -0 -0 -0 -0 -0 -0 -0 -0 -0 -0 -0 -0 -0 -0 -0 -0 -0
-0 -0 -0 -0 -0 -0 -0 -0 -0 -0 -0 -0 -0 -0 -0 -0 -0 -0 -0 -0 -0 -0 -0 -0 -0 -0 -0 -0 -0 -0 -0 -0 -0 -0 -0 -0 -0 -0 -0 -0 -0 -0 -0 -0
-0 -0 -0 -0 -0 -0 -0 -0 -0 -0 -0 -0 -0 -0 -0 -0 -0 -0 -0 -0 -0 -0 -0 -0 -0 -0 -0 -0 -0 -0 -0 -0 -0 -0 -0 -0 -0 -0 -0 -0 -0 -0 -0 -0
Wind_Speed
19 22 25 27 31 30 27 26 25 26 30 33 29 28 24 23 21 20 20 18 14 12 12 11 10 9 9 10 12 9 9 12 14 13 14 13 15 15 15 14 12 9 10 10
21 24 23 27 28 30 30 30 29 27 31 24 23 22 18 18 17 17 17 16 13 13 11 12 12 10 6 6 11 14 12 11 13 13 15 16 16 16 15 14 13 13 11 12
17 19 16 18 17 19 23 23 22 25 22 26 24 19 14 14 13 13 11 7 6 3 5 6 9 8 6 9 12 13 12 11 13 13 17 17 17 15 14 14 13 13 12 11
10 11 9 11 11 8 17 20 20 17 20 20 20 17 15 9 6 7 9 7 5 3 1 5 8 14 13 11 13 13 14 14 12 13 15 16 17 16 16 14 14 11 12 12
6 9 20 18 5 13 15 16 9 13 17 18 15 8 6 2 3 4 3 4 2 1 3 7 4 13 12 13 13 13 15 15 14 13 16 17 18 17 15 15 12 12 12 14
10 9 7 4 16 23 17 8 19 25 16 17 10 9 6 10 4 3 4 4 4 4 4 4 2 10 13 14 13 13 14 17 18 15 15 17 16 16 14 12 12 10 12 11
9 7 12 3 21 19 7 8 25 19 14 12 9 4 12 8 5 4 4 6 6 6 6 5 5 8 10 13 15 13 13 13 14 16 16 16 15 14 14 13 13 11 11 12
3 5 9 4 21 7 11 22 19 21 20 17 16 15 10 8 8 7 7 4 4 4 4 3 3 6 8 10 10 14 16 17 17 16 13 14 16 14 15 14 13 12 12 11
4 8 18 20 13 20 18 16 15 20 21 17 16 15 14 10 9 8 8 5 1 1 2 4 5 5 7 8 12 14 15 17 17 17 14 15 16 15 12 13 12 11 11 11
11 8 14 23 24 16 14 15 19 18 18 16 12 14 13 10 10 9 6 6 3 4 5 4 5 5 7 10 13 14 15 16 15 16 16 14 10 11 12 12 11 12 11 11
13 17 19 16 16 19 24 22 20 21 18 16 14 17 13 12 12 8 7 6 5 4 4 5 8 8 9 9 11 13 13 13 13 12 14 13 12 11 10 11 12 12 11 11
8 13 13 21 25 27 22 15 18 19 20 21 17 15 15 14 11 8 8 6 6 6 6 7 9 9 10 8 11 12 12 11 10 11 10 10 10 9 9 11 14 13 16 11
13 13 20 22 20 18 16 16 16 17 15 16 17 15 13 12 8 7 7 7 6 6 8 10 11 11 13 11 10 12 11 12 10 11 10 11 10 11 11 9 14 16 18 17
14 18 12 6 10 15 11 14 15 13 11 12 14 14 14 13 11 8 5 6 7 4 7 11 12 13 13 14 13 12 12 14 11 10 10 10 10 10 10 11 11 10 14 14
9 10 7 10 12 12 13 11 12 14 16 16 14 13 14 14 14 9 6 5 6 7 8 11 12 11 11 13 13 13 11 9 10 9 9 10 10 10 10 11 10 9 9 9
7 5 8 11 14 14 14 13 10 13 14 15 15 15 14 13 12 6 4 6 4 2 2 4 8 11 12 13 13 11 10 14 12 9 10 10 10 10 9 10 11 9 9 9
9 9 10 11 11 13 14 13 10 10 11 11 14 15 14 12 10 4 3 3 3 4 3 5 7 8 10 12 12 9 8 10 12 9 10 10 10 10 10 10 10 10 9 10
8 7 7 8 10 11 12 13 12 12 11 11 11 11 12 11 9 8 3 2 5 4 3 4 7 9 9 10 10 9 9 9 9 10 10 10 10 10 10 10 10 10 9 10
7 8 9 9 9 9 10 11 12 12 10 10 10 9 9 9 10 8 2 3 4 4 3 5 8 9 9 10 10 8 9 10 10 9 9 11 9 9 9 9 9 9 10 10
5 6 8 9 9 8 10 9 9 10 10 10 9 8 9 9 9 9 5 2 2 2 5 8 8 8 9 10 10 8 10 10 10 9 9 9 9 9 8 10 9 9 9 9
6 6 7 8 7 7 7 8 6 9 9 8 9 8 7 7 8 7 6 5 3 1 3 9 8 7 8 10 9 8 8 8 9 9 9 8 9 9 9 9 8 8 9 9
7 6 6 7 6 7 8 9 7 8 8 8 10 9 8 6 7 7 3 3 3 2 3 5 6 9 9 12 8 8 9 9 8 8 8 8 8 9 9 9 9 9 8 8
8 8 8 7 7 8 6 9 11 11 9 8 8 9 8 6 4 4 5 5 2 0 2 3 7 10 13 6 7 7 8 8 7 7 7 7 8 8 8 9 8 8 8 8
9 10 10 10 10 9 11 12 12 11 10 8 7 6 7 6 4 0 2 5 3 1 1 4 7 10 10 6 6 6 7 6 6 7 7 9 7 7 7 8 8 7 8 9
8 8 8 8 10 8 11 11 11 11 11 11 11 8 7 5 4 3 3 3 3 3 3 4 8 10 5 5 5 6 6 7 7 7 8 8 8 7 7 7 8 8 8 8
9 7 7 9 8 8 8 9 9 8 7 8 9 10 7 5 5 5 3 3 4 4 3 4 5 6 5 6 7 7 7 7 8 7 8 7 7 7 8 8 8 8 8 8
8 8 8 7 7 8 8 9 9 8 7 7 9 9 9 8 6 5 4 4 4 5 5 5 6 7 7 7 7 7 7 7 8 8 7 8 8 8 8 8 8 8 8 8
Wind_Direction
272 279 283 286 289 287 283 273 266 277 279 282 287 290 293 285 280 271 272 266 265 237 216 216 215 210 169 155 140 144 146 154 161 153 145 143 145 146 147 153 153 131 125 119
282 277 278 277 276 273 272 278 274 272 273 277 286 289 287 284 292 283 281 284 261 237 224 216 210 202 179 152 156 148 157 163 144 148 140 146 147 146 147 143 142 142 142 148
271 282 286 277 261 272 280 275 273 278 289 294 295 293 298 293 299 307 300 285 283 247 236 217 226 187 190 178 163 148 154 145 141 150 148 148 145 145 143 140 143 145 146 152
276 301 250 249 320 322 324 290 280 274 275 303 304 296 290 308 352 0 55 62 32 40 285 252 225 188 174 175 163 159 152 146 150 152 149 151 151 148 142 139 146 145 149 146
274 287 282 287 30 341 340 303 20 340 318 326 319 318 324 35 22 30 65 71 81 305 296 308 305 179 156 157 161 159 160 157 159 162 151 151 155 153 151 151 150 155 154 156
283 273 280 53 349 343 317 243 349 332 314 340 357 29 339 342 347 37 58 39 17 355 348 1 52 156 158 162 163 172 176 166 154 160 158 154 149 146 144 143 144 143 159 159
264 271 274 276 359 326 323 348 314 310 314 325 331 305 291 320 334 356 350 7 1 7 8 10 126 149 163 168 177 169 160 151 153 155 157 147 139 138 141 143 145 158 161 163
262 270 273 331 348 344 297 301 309 322 330 327 316 309 310 309 309 324 330 359 12 355 21 34 144 162 163 175 161 155 155 154 155 152 149 143 143 146 148 142 155 154 153 156
267 260 303 309 297 282 288 282 292 309 315 325 318 321 307 296 298 292 296 315 43 248 139 133 164 180 166 153 148 145 153 156 151 143 146 143 143 140 147 160 157 160 160 163
300 263 285 300 289 303 311 311 309 309 313 312 311 313 307 300 301 291 284 272 231 188 162 156 175 166 157 148 147 151 150 150 148 143 143 143 146 156 154 163 160 164 162 170
267 288 292 281 310 322 321 320 327 333 332 322 317 306 311 305 301 297 290 278 245 231 184 173 154 149 134 148 154 147 142 143 147 146 144 150 158 162 162 173 167 162 166 167
266 289 289 296 309 311 311 322 340 341 341 338 339 310 303 296 290 291 297 287 250 227 192 176 155 156 151 154 146 142 142 145 148 144 144 142 144 144 153 161 159 160 157 161
271 286 299 289 289 298 318 335 337 336 339 334 344 351 335 302 308 309 294 285 277 246 194 177 161 161 163 147 142 148 151 148 142 143 146 147 146 153 154 148 151 149 157 162
285 272 281 304 320 320 327 339 344 338 340 338 340 346 349 342 326 321 344 335 322 280 193 181 170 164 164 154 154 154 150 150 147 147 145 147 152 153 151 158 162 160 167 161
293 328 317 331 335 335 341 343 349 350 345 347 349 349 347 338 330 330 341 354 341 310 224 184 165 153 156 149 143 147 142 145 144 140 143 143 146 149 153 155 157 153 148 156
323 311 345 346 341 340 342 347 346 343 347 347 345 349 342 327 308 301 343 11 358 356 69 135 149 147 144 139 139 138 140 140 139 140 139 143 149 153 153 157 155 157 163 161
342 344 353 351 337 333 337 343 335 329 325 339 342 335 329 327 317 290 359 63 69 58 84 105 116 125 129 134 138 132 135 140 140 140 149 152 153 159 161 161 163 165 168 167
351 358 352 340 338 333 332 339 341 337 333 329 325 334 338 338 334 315 280 127 101 69 69 99 114 116 122 128 129 129 137 140 148 152 151 154 161 163 165 167 169 168 163 169
1 355 346 339 337 336 335 333 332 326 329 325 329 336 337 336 335 332 316 194 154 142 148 123 126 123 127 130 132 134 141 148 150 153 156 153 159 164 166 169 170 169 164 161
334 346 339 332 331 332 329 329 322 326 331 325 322 332 341 346 347 344 352 28 4 341 150 146 141 136 133 137 137 144 151 151 150 149 152 159 163 166 169 172 168 166 168 169
311 307 338 339 325 315 312 309 310 333 325 325 326 330 330 329 338 345 353 338 356 341 155 153 152 147 150 149 152 149 147 146 148 152 157 161 160 164 167 168 168 169 171 176
311 314 310 318 327 323 322 327 324 323 327 331 335 329 331 336 341 334 345 328 357 92 117 149 158 159 151 150 152 149 155 154 150 153 160 163 164 167 170 171 174 175 177 179
331 330 324 333 329 322 328 352 345 331 320 323 321 327 326 313 305 322 333 357 342 147 142 146 149 147 150 147 146 148 149 152 157 164 166 168 169 172 173 177 177 174 175 177
339 340 335 336 334 338 348 344 342 338 320 315 302 295 316 315 313 245 310 299 276 219 149 148 165 164 160 155 152 153 159 164 168 171 173 174 173 172 172 171 175 173 170 166
329 326 332 338 333 326 318 331 333 337 339 335 329 317 306 303 274 302 308 290 250 202 164 145 162 169 168 164 167 170 173 176 178 177 178 177 175 174 169 168 168 165 161 161
339 339 332 331 330 333 336 338 326 328 328 326 326 330 314 296 283 283 273 253 241 234 200 183 186 185 187 187 183 181 177 171 170 175 171 168 167 164 162 157 152 155 154 151
343 344 342 336 338 332 340 333 318 321 325 318 315 324 316 305 289 273 266 249 228 215 216 208 199 194 184 179 179 174 173 171 171 168 168 163 162 157 154 154 153 148 144 146